Regional Weather Roundup
Issued by NWS Newport/Morehead, NC

Current Version | Previous Version | Text Only | Print | Product List | Glossary On
Versions: 1 2 3 4 5 6 7 8 9 10 11 12 13 14 15 16 17 18 19 20 21 22 23 24 25 26 27 28 29 30 31 32 33 34 35 36 37 38 39 40 41 42 43 44 45 46 47 48 49 50
000 ASUS42 KMHX 251025 RWRMHX WEATHER ROUNDUP FOR EASTERN NORTH CAROLINA NATIONAL WEATHER SERVICE NEWPORT/MOREHEAD CITY NC 600 AM EDT SAT MAR 25 2017 NOTE: "FAIR" INDICATES FEW OR NO CLOUDS BELOW 12,000 FEET WITH NO SIGNIFICANT WEATHER AND/OR OBSTRUCTIONS TO VISIBILITY NCZ015>017-031-032-045>047-102-103-251100- NORTH COAST CITY SKY/WX TMP DP RH WIND PRES REMARKS EDENTON CLOUDY 56 50 79 SW7 30.31S ELIZABETH CITY CLOUDY 54 49 83 S12 30.29F KITTY HAWK NOT AVBL MANTEO CLEAR 53 49 87 SW8 30.32S $$ NCZ045>047-081-094-103-104-251100- CENTRAL COAST CITY SKY/WX TMP DP RH WIND PRES REMARKS FRISCO CLEAR 61 51 70 W10 30.34R HAZE $$ NCZ095-097-098-100-101-251100- SOUTHERN COAST CITY SKY/WX TMP DP RH WIND PRES REMARKS BEAUFORT CLEAR 58 53 84 SW8 30.33F CEDAR ISLAND NOT AVBL JACKSONVILLE CLOUDY 57 51 80 S7 30.32S PINEY ISLAND SUNNY N/A N/A N/A S6 30.33S WILMINGTON CLOUDY 53 49 86 SE3 30.32F $$ NCZ011>013-027>030-043-044-078>080-089-090>093-098-251100- COASTAL PLAIN CITY SKY/WX TMP DP RH WIND PRES REMARKS AHOSKIE N/A 53 48 84 CALM 30.29S CLINTON CLOUDY 53 51 94 CALM 30.32S ELIZABETHTOWN PTCLDY 53 51 94 CALM 30.32R GOLDSBORO CLOUDY 54 53 98 S3 30.30R GREENVILLE PTCLDY 52 50 93 SW3 30.31S HAVELOCK CLEAR 49 47 93 S5 30.34S KENANSVILLE CLOUDY 52 50 93 CALM 30.32S KINSTON CLOUDY 53 49 87 S6 30.32S NEW BERN CLOUDY 52 49 89 S5 30.33F RICHLANDS CLOUDY 50 48 93 S5 30.32F ROCKY MOUNT PTCLDY 51 49 92 S3 30.30S WASHINGTON CLOUDY 55 49 82 S3 30.31F WHITEVILLE PTCLDY 50 48 92 CALM 30.32R $$ AMZ130-135-150-152-154-156-158-170-250-252-270-ANZ085-086-088-633-658-670-251100- MARINE OBSERVATIONS STATION/POSITION TIME TEMP WIND PRES WAVE SWELL AIR SEA DIR/SP/G HT/PER HT/PER (UTC) (F) (DEG/KT/KT) (MB) (FT/S) (FT/S) CHESAPEAKE LIGHT NOT AVBL 64 E VA BEACH 0950 53 51 210/ 14/ 16 1025.3 3/ 5 2/ 9 DUCK 1000 56 47 200/ 11/ 15 1025.4 2 E DUCK 1000 48 N/A 2/10 OREGON INLET 1000 53 54 200/ 9/ 10 1026.7 13E OREGON INLT NOT AVBL HATTERAS CG 1000 60 54 240/ 9/ 13 1026.9 DIAMOND BUOY 0950 69 76 210/ 17/ 21 1026.9 4/ 5 2/10 CAPE LOOKOUT 1000 65 220/ 8/ 11 1026.8 BEAUFORT LAB 1000 60 52 220/ 4/ 6 1026.2 30 SE NEW RVR IN 1008 65 230/ 6/ 10 1027.1 30 SE NEW RVR IN 1013 65 N/A 3/ 7 27 SE WRIGHTSVLE 1008 63 62 150/ 4/ 8 1026.2 5 SE WRIGHTSVLE 1008 59 57 160/ 6/ 8 1026.3 225 S CAPE HAT 0950 64 73 90/ 8/ 10 1028.5 5/ 8 5/ 8 41 SE CHARLESTON 0950 69 71 160/ 12/ 16 1025.4 4/ 8 3/ 8 $$

USA.gov is the U.S. government's official web portal to all federal, state and local government web resources and services.